Probability
22 22 22 26 32 36 39 40 39 33 27 22 18 16 15 14 12 10 8 7 7 8 9 6 4 3 3 3 2 2 2 2 2 2 1 0 0 0 0 0 0 0 0
24 23 22 26 30 32 35 38 36 33 29 24 22 20 17 14 11 9 8 8 7 8 8 6 4 3 2 2 1 1 1 1 1 1 1 0 0 0 0 0 0 0 0
24 23 23 26 28 28 30 32 33 33 32 28 25 23 20 15 10 8 8 8 7 6 6 5 4 2 1 1 0 0 0 0 0 1 1 0 0 0 0 0 0 0 0
23 23 24 25 27 27 26 27 29 32 32 30 26 24 21 17 12 10 9 8 7 6 4 3 2 0 0 0 0 0 0 0 1 1 1 1 0 0 1 1 1 1 1
22 23 23 23 24 25 25 26 27 28 29 28 26 23 20 17 13 11 11 10 9 6 4 2 1 1 1 1 1 0 0 0 1 2 2 2 1 0 1 2 2 2 2
19 20 21 23 23 24 25 26 26 25 25 24 22 20 17 15 12 11 11 12 10 9 7 6 5 4 4 3 2 1 0 0 1 2 3 3 2 1 1 1 2 3 3
17 17 20 24 25 24 24 25 25 24 23 22 20 16 14 12 11 10 10 11 11 10 10 10 9 8 8 6 4 3 2 1 1 1 1 2 3 2 2 1 1 1 2
16 15 18 22 24 23 23 23 23 22 22 20 17 12 10 9 8 9 10 11 11 11 10 10 10 9 9 8 6 5 5 4 3 2 2 2 2 2 3 2 1 1 1
13 14 15 18 19 19 21 23 22 20 19 17 13 9 7 6 6 7 9 11 12 10 9 9 9 9 9 8 7 6 5 5 5 5 5 3 2 2 3 3 3 2 1
11 12 13 13 14 16 18 20 19 18 16 13 10 6 4 5 6 6 7 9 10 9 9 9 8 8 8 8 7 6 5 4 5 6 6 5 3 3 3 3 3 3 3
10 10 10 10 11 13 15 16 16 15 13 11 7 5 4 5 6 6 6 6 7 7 8 8 7 6 6 6 6 7 7 6 6 6 6 6 4 3 4 4 3 3 3
9 8 8 8 10 11 13 14 14 13 11 9 7 6 6 6 6 6 6 5 5 5 5 6 6 5 5 5 6 7 8 7 6 6 6 5 4 4 4 4 4 3 4
9 8 7 8 9 11 13 13 12 9 8 8 8 8 7 7 6 6 6 6 6 6 6 6 6 6 5 5 6 7 7 6 5 4 4 4 3 3 4 4 3 4 4
10 8 7 8 9 9 10 10 9 6 5 5 6 7 7 7 6 6 6 6 6 7 8 8 8 7 6 6 6 6 6 6 4 3 3 3 3 3 3 3 3 3 3
12 9 7 7 7 7 7 7 5 4 3 3 4 6 7 6 5 4 3 3 4 6 7 8 8 6 5 5 6 6 6 6 5 4 3 3 3 3 2 2 2 1 1
14 11 8 6 6 6 6 5 3 2 3 4 4 4 5 6 5 3 1 2 3 4 5 5 5 4 4 4 3 4 5 5 4 3 2 3 3 2 1 1 1 0 0
14 11 7 6 6 5 4 4 2 2 3 4 3 3 4 6 6 4 2 2 3 4 3 3 3 2 2 2 1 1 3 3 1 1 1 1 1 0 0 0 0 0 0
11 8 6 4 4 4 4 5 5 3 3 3 2 2 3 5 6 6 3 2 3 3 3 2 1 1 1 1 0 0 1 1 0 0 0 0 0 0 0 0 0 0 0
7 7 5 4 3 3 5 7 7 5 3 1 1 1 2 3 5 5 4 3 3 3 3 3 1 0 0 0 0 0 0 0 0 0 0 0 0 0 0 0 0 0 0
8 8 7 5 4 4 5 7 6 4 3 2 1 0 1 1 3 3 3 3 3 3 3 3 2 1 0 0 0 0 0 0 0 0 0 0 0 0 0 0 0 0 0
11 9 7 6 5 5 5 6 4 2 2 4 3 1 0 1 1 3 3 3 3 3 3 3 3 2 1 0 0 0 0 0 0 0 0 0 0 0 0 0 0 0 0
10 7 5 5 5 5 6 5 3 1 1 3 4 3 2 2 2 3 3 4 3 3 3 3 3 2 1 0 0 0 0 0 0 0 0 0 0 0 0 0 0 0 0
7 5 3 4 5 5 5 5 3 1 1 3 4 4 3 3 3 3 4 5 4 3 3 3 3 2 1 0 0 0 0 0 0 0 0 0 0 0 0 0 0 0 0
6 5 4 4 5 5 4 4 2 1 1 2 3 4 4 3 3 3 4 5 5 4 3 3 3 2 1 0 0 0 0 0 0 0 0 0 0 0 0 0 0 0 0
5 4 4 4 5 5 4 3 1 0 0 1 2 3 3 3 3 3 3 4 5 5 4 3 4 3 1 0 0 0 0 0 0 0 0 0 0 0 0 0 0 0 0
4 4 4 4 4 4 4 2 1 0 0 1 2 3 3 3 3 3 3 3 5 5 4 4 5 4 1 0 0 0 0 0 0 0 0 0 0 0 0 0 0 0 0
Wind_Speed
8 8 8 8 8 6 6 6 6 5 4 3 3 2 1 1 1 1 1 2 1 2 2 1 1 1 1 0 1 1 1 0 1 2 2 2 2 1 0 0 1 1 1
5 7 8 8 8 7 6 5 6 5 5 3 3 2 2 1 1 0 1 1 1 2 2 2 2 1 1 1 1 1 1 0 1 2 2 2 3 2 1 0 0 0 0
10 9 9 8 8 7 6 6 5 5 4 4 3 2 2 2 1 1 1 1 1 2 2 2 2 1 1 1 1 1 2 1 0 1 3 2 2 2 2 1 0 0 0
7 8 8 8 8 8 6 5 5 5 4 4 4 4 3 2 1 1 0 0 1 1 1 1 1 1 1 1 1 1 1 2 0 1 0 2 3 2 1 2 1 1 0
7 7 7 7 7 6 6 5 5 4 4 3 4 4 3 2 1 1 2 1 1 1 1 1 1 1 1 1 1 1 1 2 2 1 0 0 0 1 1 1 2 2 1
6 5 4 4 4 4 4 5 6 4 4 3 3 4 4 3 3 2 1 1 1 1 1 1 1 1 1 1 1 1 1 1 2 1 1 1 1 1 1 2 2 2 2
5 6 6 5 4 5 5 4 5 4 4 4 3 4 4 4 3 2 2 1 0 0 1 1 1 1 0 1 1 1 1 2 2 2 2 2 2 2 2 2 2 2 2
6 6 7 7 6 5 4 4 5 5 4 3 2 2 3 3 2 2 2 2 1 1 1 0 0 0 0 0 0 0 1 1 1 2 2 1 2 2 2 2 2 1 2
7 6 6 6 6 6 5 5 5 4 4 4 3 2 2 3 3 2 2 2 1 1 0 0 1 1 1 1 0 0 0 0 1 1 1 1 1 1 1 2 3 3 1
6 6 6 6 6 5 5 4 5 5 4 5 4 3 3 3 3 2 2 2 1 1 1 1 1 1 2 2 1 1 1 1 1 1 0 1 1 1 1 1 2 2 3
7 6 5 5 5 4 4 4 4 4 4 4 3 3 3 3 3 2 2 2 2 2 1 1 1 1 1 1 1 1 1 1 1 2 1 1 0 0 1 0 1 1 2
6 6 6 5 4 4 3 4 4 4 4 4 3 3 3 3 3 2 2 2 2 2 1 1 1 1 1 1 1 1 1 1 1 1 1 2 1 1 1 0 0 1 2
6 5 4 4 4 4 4 4 4 4 4 4 4 3 3 3 3 3 2 2 2 2 1 2 1 1 1 1 1 1 1 1 1 1 0 1 1 1 1 1 1 1 1
6 5 4 3 3 3 3 4 4 3 4 4 4 3 3 4 4 3 2 2 2 2 2 2 1 1 1 0 1 1 1 1 1 1 1 1 1 0 1 1 1 1 0
5 5 4 3 2 3 3 3 3 3 4 3 3 3 3 2 2 2 2 2 2 2 2 2 1 1 1 0 1 0 1 1 1 1 1 1 1 1 1 1 1 1 1
5 5 5 4 3 3 3 3 3 3 4 4 3 3 2 2 2 2 2 2 2 2 1 1 1 1 1 1 1 1 1 1 1 2 2 1 1 1 2 2 1 2 2
4 4 5 5 4 3 3 3 3 3 4 3 3 3 3 3 3 3 3 3 2 2 2 1 1 1 1 2 2 0 0 1 1 1 1 1 1 1 1 2 2 2 2
4 3 3 3 2 1 2 2 2 3 3 3 3 3 3 3 3 3 3 3 3 3 2 2 2 1 2 2 2 1 1 1 1 2 2 1 1 2 1 1 2 2 3
5 4 3 3 2 2 2 2 1 2 3 3 3 3 4 4 3 3 4 3 3 2 2 2 2 2 2 2 2 1 0 1 2 2 2 1 2 3 2 1 1 3 3
3 3 3 3 2 2 2 2 2 2 2 3 3 3 3 4 4 4 4 3 3 3 2 2 2 2 2 2 2 2 0 1 2 2 2 2 2 2 2 1 1 2 4
3 3 3 2 2 2 3 2 1 2 3 2 2 2 2 3 4 3 3 2 2 2 2 2 1 2 2 2 2 2 1 2 2 2 2 2 3 2 2 2 2 4 3
3 3 3 1 1 2 3 2 1 2 1 1 2 2 2 2 2 3 2 2 3 2 2 2 1 2 2 2 2 2 3 3 2 3 3 3 4 3 3 2 2 2 2
3 2 3 1 1 2 3 3 2 1 1 1 2 2 2 1 1 2 3 2 2 2 2 2 2 2 2 2 2 2 3 3 2 3 4 4 4 4 3 4 3 2 1
2 2 2 1 1 1 2 2 2 1 1 2 2 2 2 1 0 1 2 2 2 2 2 3 3 2 2 2 2 2 2 2 2 2 3 3 3 2 2 2 2 1 1
2 2 2 2 2 2 2 2 1 1 1 1 1 2 2 2 1 0 0 2 2 4 5 4 4 3 3 5 5 2 2 2 2 1 1 1 1 1 2 2 2 2 1
2 3 2 2 1 1 2 2 2 2 1 1 1 1 1 2 2 1 1 2 2 3 4 5 5 4 6 6 5 4 4 3 2 2 0 1 1 2 2 2 2 1 2
Wind_Direction
172 154 150 147 140 137 141 151 146 151 146 144 146 142 154 159 151 154 145 146 149 136 125 124 118 87 94 127 116 106 99 52 85 71 20 358 7 34 323 195 125 151 194
144 152 154 150 151 152 151 152 153 150 152 158 156 148 144 144 151 133 78 120 124 124 131 137 142 131 108 64 80 124 118 181 94 112 90 7 350 339 323 356 101 60 83
164 168 164 158 156 156 163 158 154 144 144 135 115 98 77 60 52 39 26 5 99 117 123 137 141 140 141 170 195 159 141 170 307 113 133 138 231 300 325 333 338 1 38
160 165 162 162 162 166 162 146 143 135 133 130 133 136 137 147 184 159 146 5 48 93 118 128 141 141 143 146 178 147 144 140 153 318 105 160 166 163 302 321 306 286 240
149 156 160 166 165 158 153 146 140 135 134 137 142 145 138 147 131 103 86 61 19 34 67 105 118 119 152 168 155 136 134 149 158 165 170 24 70 137 155 268 302 315 290
142 140 132 132 146 142 143 151 146 139 137 143 142 143 141 136 118 103 103 68 16 15 23 75 84 102 149 174 182 188 178 181 174 170 164 157 167 193 176 217 250 272 280
144 146 150 147 148 145 149 153 147 150 153 147 145 145 144 140 142 146 142 137 93 350 332 43 67 70 91 173 166 179 200 193 191 201 207 199 208 195 179 188 230 259 280
148 155 158 154 154 150 144 150 160 160 160 151 145 145 146 142 140 148 155 164 184 211 243 74 100 98 57 75 131 151 210 204 215 221 212 208 226 196 184 184 183 243 293
153 154 148 147 151 153 156 156 158 155 159 159 152 166 157 148 149 154 149 164 182 187 138 76 53 32 38 42 78 75 298 183 230 245 235 227 244 220 212 190 179 178 228
146 145 150 154 154 160 161 149 154 163 162 158 173 179 169 159 148 139 145 156 156 142 126 90 57 48 44 35 46 25 7 17 308 281 320 297 284 276 247 199 190 172 180
150 154 153 147 144 145 148 151 150 144 148 153 163 171 170 160 146 147 164 166 154 139 134 133 101 81 52 30 33 360 11 5 341 349 17 324 317 306 294 250 180 166 167
146 149 144 134 133 141 150 153 152 152 162 156 157 174 173 154 151 166 182 171 165 160 141 127 99 78 62 55 51 318 349 29 359 344 9 344 1 358 318 320 250 220 198
138 132 128 134 145 154 158 156 156 161 157 145 148 160 168 172 177 185 184 172 158 144 135 126 124 131 93 57 6 328 336 295 267 276 306 316 24 355 330 325 299 270 254
135 126 125 135 154 160 160 159 164 161 151 148 152 161 178 187 189 186 176 165 153 146 154 154 163 177 174 99 347 354 329 298 279 255 225 238 179 198 288 290 273 268 314
140 145 147 151 160 156 156 161 167 162 157 157 168 183 186 174 174 168 162 149 147 153 160 155 160 186 184 262 334 310 295 288 293 281 259 237 197 198 237 260 246 212 218
155 151 147 150 162 166 168 166 171 168 152 156 172 176 163 156 165 173 161 148 147 152 144 164 172 179 258 300 301 275 263 264 264 279 290 276 261 270 276 282 255 203 214
162 161 161 163 168 172 163 170 184 163 151 163 175 172 168 173 184 179 165 174 184 169 174 196 175 196 272 287 294 294 205 240 255 257 278 289 293 245 276 296 308 302 276
160 163 158 155 160 155 157 158 157 156 159 169 179 182 178 184 183 175 180 189 187 185 193 200 194 194 273 278 257 254 252 247 254 250 237 230 271 279 251 264 313 308 296
166 169 162 153 149 142 136 123 131 152 163 181 193 193 183 182 184 189 194 195 184 194 198 192 189 195 264 275 259 223 226 264 277 274 265 239 252 275 253 226 298 312 308
147 144 127 116 136 167 137 120 153 160 196 204 199 193 182 179 189 193 192 189 183 198 202 198 198 200 236 270 269 247 209 275 290 297 290 266 254 275 256 201 225 278 285
128 132 127 128 163 175 135 130 164 202 219 210 178 176 181 183 181 180 181 178 182 178 178 195 220 220 237 257 266 246 206 228 258 274 282 273 267 265 258 221 220 248 262
113 122 126 140 190 163 139 143 217 238 223 179 162 169 175 189 167 165 176 176 176 179 198 209 249 259 254 248 254 240 229 225 221 248 260 263 271 278 279 253 255 268 283
128 130 133 145 219 176 153 170 234 252 255 176 180 182 179 186 175 172 181 185 189 194 210 205 226 250 253 253 251 252 249 244 236 253 260 261 265 276 284 280 262 260 268
132 134 131 149 238 224 184 191 220 228 205 202 202 188 180 183 142 178 187 188 200 205 206 203 218 237 250 258 267 270 264 270 264 275 282 279 283 279 276 288 282 258 229
166 155 157 193 223 221 207 209 206 184 244 235 209 190 181 183 168 124 218 202 213 209 203 211 207 210 236 243 230 220 242 244 243 265 345 357 344 328 310 299 288 278 269
166 154 176 197 207 202 210 218 197 172 181 235 217 196 184 187 181 174 331 338 242 233 215 213 209 228 229 228 231 237 243 236 191 137 142 259 258 253 259 266 277 278 263